Regional Weather Roundup
Issued by NWS Newport/Morehead, NC

Current Version | Previous Version | Text Only | Print | Product List | Glossary Off
Versions: 1 2 3 4 5 6 7 8 9 10 11 12 13 14 15 16 17 18 19 20 21 22 23 24 25 26 27 28 29 30 31 32 33 34 35 36 37 38 39 40 41 42 43 44 45 46 47 48 49 50

000
ASUS42 KMHX 251912
RWRMHX
WEATHER ROUNDUP FOR EASTERN NORTH CAROLINA
NATIONAL WEATHER SERVICE NEWPORT/MOREHEAD CITY NC
300 PM EDT SAT APR 25 2015

NOTE: "FAIR" INDICATES FEW OR NO CLOUDS BELOW 12,000 FEET
WITH NO SIGNIFICANT WEATHER AND/OR OBSTRUCTIONS TO VISIBILITY

NCZ015>017-031-032-045>047-102-103-252000-
NORTH COAST

CITY           SKY/WX    TMP DP  RH WIND       PRES   REMARKS
EDENTON        DRIZZLE   59  51  75 CALM      29.83F
ELIZABETH CITY CLOUDY    57  43  59 E10       29.84F
KITTY HAWK     LGT RAIN  55  46  72 E7        29.82F
MANTEO         CLOUDY    56  39  52 E9        29.84F

$$

NCZ045>047-081-094-103-104-252000-
CENTRAL COAST

CITY           SKY/WX    TMP DP  RH WIND       PRES   REMARKS
FRISCO         CLOUDY    61  51  70 S7        29.81F
SWANQUARTER      N/A     63 N/A N/A W2        29.77F

$$

NCZ095-097-098-100-101-252000-
SOUTHERN COAST

CITY           SKY/WX    TMP DP  RH WIND       PRES   REMARKS
BEAUFORT       CLOUDY    62  58  86 SW10      29.82F
CEDAR ISLAND     N/A     64 N/A N/A S12G21    29.82F
JACKSONVILLE   CLOUDY    60  54  80 S3        29.80F
PINEY ISLAND   CLOUDY   N/A N/A N/A SW14G23   29.81F
WILMINGTON     CLOUDY    64  57  78 SE7       29.80F


$$

NCZ011>013-027>030-043-044-078>080-089-090>093-098-252000-
COASTAL PLAIN

CITY           SKY/WX    TMP DP  RH WIND       PRES   REMARKS
AHOSKIE        RAIN      52  48  88 NE3       29.83F
CLINTON        PTSUNNY   61  58  89 SE3       29.79F
ELIZABETHTOWN  PTSUNNY   64  57  78 S8        29.78F
GOLDSBORO      CLOUDY    57 N/A N/A CALM      29.78F
GREENVILLE     DRIZZLE   57  55  94 SW6       29.85F
HAVELOCK       LGT RAIN  60  55  83 S6        29.83F
KENANSVILLE    CLOUDY    59  55  87 SE3       29.81F
KINSTON        CLOUDY    57  55  94 SW5       29.82F
NEW BERN       CLOUDY    60  53  77 SW8       29.83F
RICHLANDS      CLOUDY    61  52  72 SE6       29.80F
ROCKY MOUNT    LGT RAIN  57  55  93 S6        29.82F FOG
WASHINGTON     RAIN      58  53  85 CALM      29.82F
WHITEVILLE     CLOUDY    63  57  80 SE5       29.77F

$$

AMZ130-135-150-152-154-156-158-170-250-252-270-ANZ085-086-088-633-658-670-252000-
MARINE OBSERVATIONS

STATION/POSITION TIME  TEMP    WIND        PRES    WAVE   SWELL
                       AIR SEA DIR/SP/G            HT/PER HT/PER
                 (UTC) (F)     (DEG/KT/KT) (MB)    (FT/S) (FT/S)
CHESAPEAKE LIGHT 1900   48      70/ 10/ 11 1012.0
64 E VA BEACH    1850   54 59   50/  8/ 10 1010.8    2/ 5   2/ 5
DUCK             1800   53 55   80/ 13/ 14 1010.1
2 E DUCK         1811      55                N/A     2/13   2/13
10 NE DUCK       NOT AVBL
OREGON INLET     1800   57 58   60/  7/ 11 1011.3
HATTERAS CG      1800   63 65  330/  2/  2 1010.8
DIAMOND BUOY     1850   65 72  240/  6/  8 1010.2    3/ 8   2/ 8
CAPE LOOKOUT     1900   61     200/  6/  7 1009.5
BEAUFORT LAB     1800   61 63  250/  8/ 12 1010.9
27 SE WRIGHTSVLE 1800   64 71  240/ 12/ 14   N/A
5 SE WRIGHTSVLE  1808   62 65  100/  6/  8 1010.6
225 S CAPE HAT   1850   68 71  210/ 14/ 19 1014.2    4/ 9   3/ 9
41 SE CHARLESTON 1850   71 72  180/ 23/ 29 1006.4    5/ 5   2/10

$$



USA.gov is the U.S. government's official web portal to all federal, state and local government web resources and services.